{"data":{"norad_id":87587,"epoch":"2026-05-22T07:54:50.077728Z","epoch_age_seconds":295830,"freshness":"STALE","line1":"1 87587U          26142.32974627  .00000092  00000+0  37481-4 0  9997","line2":"2 87587  74.0227 165.9060 0019983 166.8414 193.3266 14.40147184656928","mean_motion":14.40147184,"eccentricity":0.0019983,"inclination_deg":74.0227,"raan_deg":165.906,"arg_perigee_deg":166.8414,"mean_anomaly_deg":193.3266,"bstar":3.7481e-5,"rev_number":65692,"period_min":99.989779933493,"perigee_km":743.75203454056,"apogee_km":772.27236843923,"semimajor_km":7136.1492014899,"source":"CELESTRAK","updated_at":"2026-05-25T13:38:11.674322Z"}}